Regional Weather Roundup
Issued by NWS

Home | Current Version | Previous Version | Text Only | Print | Product List | Glossary Off
Versions: 1 2 3 4 5 6 7 8 9 10 11 12 13 14 15 16 17 18 19 20 21 22 23 24 25 26 27

000
ASUS45 KBOU 300107
RWRCO

WEATHER ROUNDUP FOR COLORADO
NATIONAL WEATHER SERVICE DENVER/BOULDER CO
700 PM MDT FRI JUL 29 2016

NOTE: "FAIR" INDICATES FEW OR NO CLOUDS BELOW 12000 FEET WITH NO
SIGNIFICANT WEATHER AND/OR OBSTRUCTIONS TO VISIBILITY.

COZ001>005-013-030-031-300200-
...NORTHWEST COLORADO...

CITY           SKY/WX    TMP DP  RH WIND       PRES   REMARKS
CRAIG          FAIR      82  37  20 S6        30.08F
HAYDEN         FAIR      82  32  16 W7        30.14R
MEEKER         FAIR      89  36  15 MISG      30.09F
MOUNT WERNER   NOT AVBL
STEAMBOAT SPGS FAIR      81  36  19 CALM      30.13F
WALDEN         FAIR      77  32  19 W12       30.26F
$$

COZ006>008-011-300200-
...WEST CENTRAL VALLEYS...

CITY           SKY/WX    TMP DP  RH WIND       PRES   REMARKS
GRAND JUNCTION FAIR      93  33  12 N23G29    29.97S
MONTROSE       FAIR      89  39  17 W6        30.04F
EAGLE          SUNNY     90  34  13 W10G16    30.12F
RIFLE          FAIR      95  33  11 N7        30.00F
DELTA          NOT AVBL
NUCLA          NOT AVBL
$$

COZ017>023-064>068-300200-
...SOUTHWEST COLORADO...

CITY           SKY/WX    TMP DP  RH WIND       PRES   REMARKS
DURANGO        FAIR      89  27  10 CALM      30.10S
CORTEZ         FAIR      94  31  10 VRB7      30.04F
PAGOSA SPRINGS FAIR      84  23  10 W3        30.21S
TELLURIDE      FAIR      77  26  15 NW7       30.37F
WOLF CREEK PAS FAIR      63  23  22 W13G21    30.62S
$$

COZ009-010-012-014-032>034-037-058>063-300200-
...CENTRAL COLORADO...

CITY           SKY/WX    TMP DP  RH WIND       PRES   REMARKS
ASPEN          FAIR      82  32  16 VRB5      30.21F
BUENA VISTA    FAIR      80  23  12 NW9G20    30.24R
COPPER MTN     FAIR      64  21  19 NW16G25   30.61F
BERTHOUD PASS  FAIR      54  39  58 NW18      30.64R
COTTONWOOD PAS FAIR      77  32  19 E9        30.41S
GUNNISON       FAIR      81  30  16 NW15G23   30.24S
KREMMLING      FAIR      82  19   9 N7        30.21S
LEADVILLE      FAIR      71  25  17 N14G20    30.41F
MONARCH PASS   FAIR      57  43  58 MISG      30.69R
SALIDA         FAIR      77  50  39 SE17G25   30.27S
SUNLIGHT       FAIR      70  34  26 MISG      30.53F
WILKERSON PASS FAIR      59  43  55 S5        30.57S
$$

COZ069>075-300200-
...SAN LUIS VALLEY/SANGRE DE CRISTO MOUNTAINS...

CITY           SKY/WX    TMP DP  RH WIND       PRES   REMARKS
ALAMOSA        FAIR      79  48  33 E23G30    30.18R
LA VETA PASS   PTSUNNY   59  50  72 NE17G25   30.46R
SAGUACHE       FAIR      86  27  11 NW15G31   30.20R
$$

COZ035-036-038>040-300200-
...NORTHERN COLORADO FRONT RANGE...

CITY           SKY/WX    TMP DP  RH WIND       PRES   REMARKS
DENVER INTL AP FAIR      82  57  42 SE26G33   30.06S
DMNS CITY PARK   N/A     85  47  26 SW2       30.04S
AURORA         MOSUNNY   81  58  44 SE20G32   30.08R
FRONT RANGE AP PTSUNNY   84  57  39 SE25G35   30.09S
ERIE MUNI ARPT FAIR      87  46  24 E10       30.03S
BOULDER MUN AP FAIR      84  50  30 NE5       30.05S
CENTENNIAL     FAIR      80  53  39 S16       30.09S
BROOMFIELD     NOT AVBL
LONGMONT       NOT AVBL
$$

COZ041-046-047-076>085-087-088-300200-
...PIKES PEAK/PALMER DIVIDE AND SOUTHERN FOOTHILLS...

CITY           SKY/WX    TMP DP  RH WIND       PRES   REMARKS
COLO. SPRINGS  CLOUDY    73  55  53 SE13      30.21R
A. F. ACADEMY  PTSUNNY   74  55  51 S15G25    30.20R
SCHRIEVER AFB  NOT AVBL
ELLICOTT       NOT AVBL
FALCON         NOT AVBL
FORT CARSON    NOT AVBL
LIMON          FAIR      75  57  53 SE17G25   30.14S
MONUMENT HILL  FAIR      70  54  56 MISG      30.24S
TRINIDAD       NOT AVBL
$$

COZ042>045-048>051-090-091-300200-
...NORTHEAST COLORADO...

CITY           SKY/WX    TMP DP  RH WIND       PRES   REMARKS
GREELEY ARPT   FAIR      75  54  46 E17G28    30.03S THUNDER
AKRON          FAIR      74  57  55 E14       30.11S
BURLINGTON     FAIR      78  56  46 SE10      30.10R
WRAY           NOT AVBL
STERLING       NOT AVBL
HOLYOKE        NOT AVBL
FORT MORGAN    NOT AVBL
$$

COZ086-089-092>099-300200-
...SOUTHEAST COLORADO...

CITY           SKY/WX    TMP DP  RH WIND       PRES   REMARKS
PUEBLO         FAIR      83  59  44 E13       30.07F
LA JUNTA       FAIR      85  62  46 SE13      30.02F
LAMAR          FAIR      81  64  56 E12       30.00F
SPRINGFIELD      N/A     74  63  68 E14       30.07R
$$




USA.gov is the U.S. government's official web portal to all federal, state and local government web resources and services.